Location: Newark
(7.0858°N, 171.3717°E)
Time: 22:59:42
(UTC+00:00)

Vanguard 2 - All Passes

Search period start: 25 November 2020 00:00
Search period end: 05 December 2020 00:00
Orbit: 554 x 2937 km, 32.9° (Epoch: 25 November)

Date Brightness Start Highest point End Pass type
(mag) Time Alt. Az. Time Alt. Az. Time Alt. Az.
25 Nov - 05:38:53 10° NNW 05:44:50 42° NE 05:54:30 10° ESE daylight
25 Nov - 07:46:26 10° WNW 07:54:41 57° SSW 08:08:24 10° SE visible
25 Nov - 09:58:42 10° WSW 10:07:39 22° SSW 10:19:10 10° SSE visible
25 Nov - 16:51:48 10° SSW 17:00:39 18° SSE 17:07:31 10° ESE visible
25 Nov - 19:01:51 10° SW 19:13:04 49° SSE 19:19:49 10° ENE daylight
25 Nov - 21:14:46 10° WSW 21:22:19 39° NW 21:27:14 10° NNE daylight
26 Nov - 03:52:35 10° NNE 03:53:53 11° NNE 03:55:17 10° NE daylight
26 Nov - 05:56:22 10° NW 06:02:37 63° NE 06:13:17 10° ESE daylight
26 Nov - 08:04:50 10° W 08:13:02 42° SSW 08:26:00 10° SE visible
26 Nov - 10:19:13 10° SW 10:26:47 17° SSW 10:35:51 10° SSE visible
26 Nov - 15:01:54 10° S 15:04:08 10° SSE 15:06:19 10° SSE visible
26 Nov - 17:08:34 10° SSW 17:19:33 25° SSE 17:27:23 10° ESE visible
26 Nov - 19:19:38 10° SW 19:31:14 71° SSE 19:37:57 10° ENE daylight
26 Nov - 21:33:57 10° W 21:40:04 25° NW 21:44:25 10° NNE daylight
27 Nov - 04:08:22 10° N 04:11:52 17° NE 04:16:19 10° ENE daylight
27 Nov - 06:14:04 10° NW 06:20:30 90° SSW 06:31:40 10° SE daylight
27 Nov - 08:23:39 10° W 08:31:35 30° SSW 08:43:19 10° SSE visible
27 Nov - 10:41:04 10° SW 10:46:12 12° SSW 10:51:53 10° S visible
27 Nov - 15:16:33 10° S 15:23:48 14° SSE 15:30:12 10° SE visible
27 Nov - 17:25:42 10° SSW 17:38:14 34° SSE 17:46:33 10° E visible
27 Nov - 19:37:46 10° WSW 19:49:13 82° NW 19:55:48 10° NE daylight
27 Nov - 21:53:48 10° WNW 21:57:56 16° NW 22:01:13 10° N daylight
28 Nov - 04:25:16 10° NNW 04:29:40 27° NE 04:35:58 10° E daylight
28 Nov - 06:32:00 10° WNW 06:38:31 63° SSW 06:49:41 10° SE visible
28 Nov - 08:43:01 10° WSW 08:50:20 22° SSW 09:00:19 10° SSE visible
28 Nov - 15:32:55 10° SSW 15:43:08 19° SSE 15:51:30 10° ESE visible
28 Nov - 17:43:07 10° SW 17:56:43 46° SSE 18:05:13 10° E visible
28 Nov - 19:56:16 10° WSW 20:07:04 57° NW 20:13:27 10° NE daylight
29 Nov - 04:42:32 10° NW 04:47:24 44° NE 04:54:58 10° ESE daylight
29 Nov - 06:50:14 10° W 06:56:45 43° SSW 07:07:22 10° SE visible
29 Nov - 09:03:13 10° SW 09:09:18 16° SSW 09:16:52 10° SSE visible
29 Nov - 13:43:56 10° S 13:45:39 10° SSE 13:47:21 10° SSE visible
29 Nov - 15:49:45 10° SSW 16:02:11 25° SSE 16:11:42 10° ESE visible
29 Nov - 18:00:49 10° SW 18:15:01 63° SSE 18:23:31 10° ENE visible
29 Nov - 20:15:12 10° WSW 20:24:50 39° NW 20:30:53 10° NNE daylight
30 Nov - 05:00:04 10° NW 05:05:11 71° NE 05:13:31 10° ESE daylight
30 Nov - 07:08:52 10° W 07:15:10 30° SSW 07:24:42 10° SSE visible
30 Nov - 09:25:05 10° SSW 09:28:30 11° SSW 09:32:19 10° S visible
30 Nov - 13:58:14 10° S 14:05:30 13° SSE 14:12:18 10° SE visible
30 Nov - 16:06:52 10° SSW 16:20:59 33° SSE 16:31:10 10° E visible
30 Nov - 18:18:48 10° SW 18:33:08 84° SE 18:41:32 10° ENE daylight
30 Nov - 20:34:35 10° W 20:42:39 27° NW 20:48:07 10° NNE daylight
01 Dec - 03:12:02 10° N 03:14:48 16° NE 03:18:04 10° ENE daylight
01 Dec - 05:17:52 10° WNW 05:23:04 73° SSW 05:31:38 10° SE daylight
01 Dec - 07:28:03 10° WSW 07:33:45 21° SSW 07:41:38 10° SSE visible
01 Dec - 14:14:34 10° SSW 14:24:59 18° SSE 14:34:16 10° ESE visible
01 Dec - 16:24:13 10° SW 16:39:34 44° SSE 16:50:04 10° E visible
01 Dec - 18:37:08 10° WSW 18:51:07 73° NW 18:59:19 10° NE daylight
01 Dec - 20:54:33 10° WNW 21:00:36 19° NW 21:05:07 10° N daylight
02 Dec - 03:28:53 10° NNW 03:32:36 27° NE 03:37:29 10° E daylight
02 Dec - 05:35:58 10° WNW 05:41:08 45° SSW 05:49:23 10° SE daylight
02 Dec - 07:48:10 10° SW 07:52:32 14° SSW 07:57:56 10° S visible
02 Dec - 14:31:20 10° SSW 14:44:08 24° SSE 14:55:00 10° ESE visible
02 Dec - 16:41:47 10° SW 16:57:58 58° SSE 17:08:34 10° ENE visible
02 Dec - 18:55:50 10° WSW 19:08:59 54° NW 19:16:55 10° NE daylight
02 Dec - 21:15:21 10° NW 21:18:44 13° NNW 21:21:35 10° N daylight
03 Dec - 03:46:12 10° NW 03:50:21 48° NE 03:56:14 10° ESE daylight
03 Dec - 05:54:27 10° W 05:59:24 29° SSW 06:06:44 10° SSE daylight
03 Dec - 12:41:36 10° S 12:46:51 12° SSE 12:52:07 10° SE visible
03 Dec - 14:48:22 10° SSW 15:03:01 31° SSE 15:14:53 10° E visible
03 Dec - 16:59:37 10° SW 17:16:13 75° SE 17:26:44 10° ENE visible
03 Dec - 19:14:57 10° W 19:26:51 39° NW 19:34:23 10° NNE daylight
04 Dec - 04:03:50 10° NW 04:08:08 88° NNE 04:14:29 10° SE daylight
04 Dec - 06:13:32 10° WSW 06:17:51 19° SSW 06:23:36 10° SSE daylight
04 Dec - 12:57:17 10° S 13:06:26 16° SSE 13:15:24 10° SE visible
04 Dec - 15:05:36 10° SSW 15:21:40 41° SSE 15:34:08 10° E visible
04 Dec - 17:17:45 10° SW 17:34:19 86° NW 17:44:41 10° NE visible
04 Dec - 19:34:32 10° W 19:44:48 29° NW 19:51:42 10° NNE daylight
